• In Netherlands
  • List of Countries
  • For 7 days
  • Water Temperature
  • Satellite Maps
  • Weather Map
  • Weather Widgets
  • user-avatar
    Login

    Hourly Weather Porto-Novo

    Today, 21 August, Monday

    Time Temperature Precipitation Wind Pressure Humidity
    00:00 +26°C° 0 mm 4 mps 760 mmHg 86%
    01:00 +25°C° 0 mm 4 mps 760 mmHg 86%
    02:00 +25°C° 0 mm 3 mps 759 mmHg 87%
    03:00 +25°C° 0 mm 3 mps 759 mmHg 88%
    04:00 +25°C° 0 mm 3 mps 759 mmHg 89%
    05:00 +25°C° 0 mm 3 mps 759 mmHg 89%
    06:00 +25°C° 0 mm 3 mps 759 mmHg 90%
    07:00 +26°C° 0 mm 3 mps 760 mmHg 84%
    08:00 +28°C° 0 mm 3 mps 760 mmHg 78%
    09:00 +29°C° 0 mm 4 mps 760 mmHg 72%
    10:00 +29°C° 0.1 mm 4 mps 760 mmHg 70%
    11:00 +30°C° 0.1 mm 4 mps 759 mmHg 69%
    12:00 +30°C° 0.1 mm 5 mps 759 mmHg 67%
    13:00 +30°C° 0.1 mm 5 mps 758 mmHg 67%
    14:00 +30°C° 0.1 mm 5 mps 758 mmHg 66%
    15:00 +30°C° 0.1 mm 5 mps 757 mmHg 66%
    16:00 +29°C° 0 mm 5 mps 757 mmHg 70%
    17:00 +28°C° 0 mm 4 mps 757 mmHg 74%
    18:00 +27°C° 0 mm 4 mps 758 mmHg 78%
    19:00 +27°C° 0 mm 4 mps 758 mmHg 80%
    20:00 +26°C° 0 mm 4 mps 759 mmHg 82%
    21:00 +26°C° 0 mm 3 mps 759 mmHg 83%
    22:00 +26°C° 0 mm 4 mps 759 mmHg 84%
    23:00 +26°C° 0 mm 4 mps 759 mmHg 84%

    Tomorrow, 22 August, Tuesday

    Time Temperature Precipitation Wind Pressure Humidity
    00:00 +26°C° 0 mm 4 mps 759 mmHg 85%
    01:00 +26°C° 0 mm 4 mps 759 mmHg 85%
    02:00 +26°C° 0 mm 3 mps 759 mmHg 85%
    03:00 +26°C° 0 mm 3 mps 759 mmHg 85%
    04:00 +25°C° 0 mm 3 mps 759 mmHg 85%
    05:00 +25°C° 0 mm 3 mps 759 mmHg 86%
    06:00 +25°C° 0 mm 3 mps 760 mmHg 86%
    07:00 +26°C° 0.1 mm 3 mps 760 mmHg 83%
    08:00 +27°C° 0.1 mm 3 mps 760 mmHg 79%
    09:00 +27°C° 0.1 mm 4 mps 761 mmHg 76%
    10:00 +28°C° 0.2 mm 4 mps 760 mmHg 74%
    11:00 +28°C° 0.2 mm 4 mps 760 mmHg 73%
    12:00 +29°C° 0.2 mm 4 mps 760 mmHg 72%
    13:00 +28°C° 0.1 mm 4 mps 759 mmHg 73%
    14:00 +28°C° 0.1 mm 4 mps 758 mmHg 74%
    15:00 +27°C° 0.1 mm 4 mps 757 mmHg 76%
    16:00 +27°C° 0 mm 4 mps 758 mmHg 77%
    17:00 +27°C° 0 mm 4 mps 758 mmHg 78%
    18:00 +26°C° 0 mm 3 mps 758 mmHg 79%
    19:00 +26°C° 0 mm 3 mps 758 mmHg 80%
    20:00 +26°C° 0 mm 3 mps 759 mmHg 81%
    21:00 +26°C° 0 mm 3 mps 760 mmHg 81%
    22:00 +26°C° 0 mm 3 mps 759 mmHg 82%
    23:00 +25°C° 0 mm 4 mps 759 mmHg 83%

    Day after tomorrow, 23 August, Wednesday

    Time Temperature Precipitation Wind Pressure Humidity
    00:00 +25°C° 0 mm 4 mps 758 mmHg 84%
    01:00 +25°C° 0 mm 4 mps 758 mmHg 85%
    02:00 +25°C° 0 mm 4 mps 758 mmHg 86%
    03:00 +25°C° 0 mm 4 mps 758 mmHg 87%
    04:00 +25°C° 0 mm 4 mps 758 mmHg 87%
    05:00 +25°C° 0 mm 3 mps 759 mmHg 88%
    06:00 +25°C° 0 mm 3 mps 759 mmHg 89%
    07:00 +26°C° 0 mm 3 mps 759 mmHg 81%
    08:00 +28°C° 0 mm 3 mps 760 mmHg 74%
    09:00 +29°C° 0 mm 3 mps 760 mmHg 67%
    10:00 +30°C° 0 mm 4 mps 760 mmHg 62%
    11:00 +33°C° 0 mm 4 mps 759 mmHg 57%
    12:00 +34°C° 0 mm 4 mps 759 mmHg 53%
    13:00 +33°C° 0 mm 4 mps 758 mmHg 54%
    14:00 +33°C° 0 mm 4 mps 757 mmHg 56%
    15:00 +33°C° 0 mm 4 mps 757 mmHg 58%
    16:00 +30°C° 0 mm 4 mps 757 mmHg 64%
    17:00 +29°C° 0 mm 4 mps 757 mmHg 70%
    18:00 +27°C° 0 mm 4 mps 758 mmHg 76%
    19:00 +27°C° 0 mm 4 mps 758 mmHg 78%
    20:00 +27°C° 0 mm 3 mps 759 mmHg 80%
    21:00 +26°C° 0 mm 3 mps 759 mmHg 81%
    22:00 +26°C° 0 mm 3 mps 759 mmHg 82%
    23:00 +26°C° 0 mm 3 mps 759 mmHg 82%

    24 August, Thursday

    Time Temperature Precipitation Wind Pressure Humidity
    00:00 +26°C° 0 mm 3 mps 759 mmHg 83%
    01:00 +26°C° 0 mm 3 mps 758 mmHg 83%
    02:00 +26°C° 0 mm 3 mps 758 mmHg 84%
    03:00 +25°C° 0 mm 3 mps 757 mmHg 84%
    04:00 +25°C° 0 mm 3 mps 758 mmHg 85%
    05:00 +25°C° 0 mm 3 mps 758 mmHg 85%
    06:00 +25°C° 0 mm 3 mps 759 mmHg 86%
    07:00 +27°C° 0 mm 3 mps 759 mmHg 79%
    08:00 +28°C° 0 mm 3 mps 760 mmHg 73%
    09:00 +30°C° 0 mm 3 mps 760 mmHg 66%
    10:00 +30°C° 0.1 mm 3 mps 760 mmHg 64%
    11:00 +32°C° 0.1 mm 4 mps 759 mmHg 62%
    12:00 +33°C° 0.1 mm 4 mps 759 mmHg 60%
    13:00 +33°C° 0.2 mm 4 mps 758 mmHg 61%
    14:00 +32°C° 0.2 mm 5 mps 757 mmHg 61%
    15:00 +32°C° 0.2 mm 5 mps 757 mmHg 62%
    16:00 +30°C° 0.1 mm 5 mps 757 mmHg 66%
    17:00 +29°C° 0.1 mm 5 mps 757 mmHg 71%
    18:00 +27°C° 0.1 mm 4 mps 758 mmHg 75%
    19:00 +27°C° 0 mm 4 mps 758 mmHg 77%
    20:00 +27°C° 0 mm 4 mps 759 mmHg 79%
    21:00 +26°C° 0 mm 4 mps 759 mmHg 80%
    22:00 +26°C° 0 mm 4 mps 759 mmHg 81%
    23:00 +26°C° 0 mm 3 mps 759 mmHg 82%

    25 August, Friday

    Time Temperature Precipitation Wind Pressure Humidity
    00:00 +26°C° 0 mm 3 mps 759 mmHg 83%
    01:00 +26°C° 0.1 mm 3 mps 759 mmHg 83%
    02:00 +26°C° 0.1 mm 4 mps 758 mmHg 84%
    03:00 +25°C° 0.1 mm 4 mps 758 mmHg 84%
    04:00 +25°C° 0.3 mm 4 mps 758 mmHg 86%
    05:00 +25°C° 0.3 mm 4 mps 758 mmHg 87%
    06:00 +25°C° 0.3 mm 4 mps 759 mmHg 88%
    07:00 +26°C° 0.3 mm 4 mps 759 mmHg 86%
    08:00 +27°C° 0.3 mm 4 mps 760 mmHg 83%
    09:00 +27°C° 0.3 mm 4 mps 760 mmHg 80%
    10:00 +29°C° 0 mm 4 mps 759 mmHg 73%
    11:00 +30°C° 0 mm 4 mps 759 mmHg 66%
    12:00 +33°C° 0 mm 4 mps 758 mmHg 59%
    13:00 +33°C° 0 mm 4 mps 758 mmHg 58%
    14:00 +33°C° 0 mm 4 mps 757 mmHg 57%
    15:00 +33°C° 0 mm 4 mps 756 mmHg 57%
    16:00 +32°C° 0 mm 4 mps 756 mmHg 63%
    17:00 +30°C° 0 mm 4 mps 757 mmHg 68%
    18:00 +28°C° 0 mm 4 mps 757 mmHg 74%
    19:00 +28°C° 0.1 mm 4 mps 757 mmHg 76%
    20:00 +27°C° 0.1 mm 4 mps 758 mmHg 78%
    21:00 +27°C° 0.1 mm 5 mps 758 mmHg 80%
    22:00 +27°C° 0.4 mm 4 mps 758 mmHg 82%
    23:00 +26°C° 0.4 mm 4 mps 758 mmHg 84%

    26 August, Saturday

    Time Temperature Precipitation Wind Pressure Humidity
    00:00 +26°C° 0.4 mm 4 mps 758 mmHg 86%
    01:00 +26°C° 0.3 mm 4 mps 758 mmHg 87%
    02:00 +26°C° 0.3 mm 4 mps 758 mmHg 88%
    03:00 +26°C° 0.3 mm 4 mps 758 mmHg 89%
    04:00 +26°C° 0.1 mm 4 mps 758 mmHg 89%
    05:00 +26°C° 0.1 mm 3 mps 758 mmHg 89%
    06:00 +26°C° 0.1 mm 3 mps 759 mmHg 89%
    07:00 +26°C° 0 mm 4 mps 759 mmHg 85%
    08:00 +27°C° 0 mm 4 mps 759 mmHg 81%
    09:00 +28°C° 0 mm 5 mps 759 mmHg 77%
    10:00 +29°C° 0 mm 5 mps 759 mmHg 74%
    11:00 +30°C° 0 mm 5 mps 758 mmHg 71%
    12:00 +30°C° 0 mm 5 mps 758 mmHg 68%
    13:00 +30°C° 0 mm 5 mps 757 mmHg 67%
    14:00 +30°C° 0 mm 5 mps 757 mmHg 67%
    15:00 +32°C° 0 mm 5 mps 756 mmHg 67%
    16:00 +29°C° 0.3 mm 5 mps 756 mmHg 72%
    17:00 +28°C° 0.3 mm 4 mps 757 mmHg 77%
    18:00 +27°C° 0.3 mm 4 mps 757 mmHg 83%
    19:00 +27°C° 0.3 mm 4 mps 758 mmHg 84%
    20:00 +26°C° 0.3 mm 4 mps 758 mmHg 86%
    21:00 +26°C° 0.3 mm 3 mps 759 mmHg 88%
    22:00 +26°C° 0 mm 3 mps 759 mmHg 89%
    23:00 +26°C° 0 mm 3 mps 759 mmHg 89%
    Show more